Weather in Zoutelande

Netherlands     51°30′06″N   3°28′56″E
temp.,
°C
wind,
m/s
gust,
m/s
humid.,
%
clouds,
%
prec.,
mm/h
press.,
hPa
HPBL,
m
19 september, sun
sun1923:00+16e5779100 0.1 101551
02:00+14e5683100 0.2 101446
05:00+14e4482100 0.0 101342
08:00+14e4485100 0.0 101340
11:00+15e3381100 0.0 101437
14:00+16e3372100 0.0 101463
17:00+17ene3369100 0.0 101473
20:00+16ne3376100 0.0 101416
20 september, mon
mon2023:00+16e4474100 0.0 101632
02:00+15e3375100 0.1 101624
05:00+15ene4475100 0.0 101726
08:00+14ene4573100 0.0 101946
11:00+14ne457494 0.0 102057
14:00+12n568217 0.0 1022160
17:00+12n57825 0.0 1022128
20:00+12n710825 0.0 1024144
21 september, tue
tue2123:00+12nne58830 0.0 1025123
02:00+12nne448495 0.0 102665
05:00+12nne338286 0.0 102744
08:00+12ne337910 0.0 102842
11:00+12ne237656 0.0 102956
14:00+12n3375100 0.0 1029122
17:00+13n4471100 0.0 102994
20:00+13nne336975 0.0 102926
22 september, wed
wed2223:00+13ne2268100 0.0 103015
02:00+12se2270100 0.0 102912
05:00+12s2275100 0.0 102822
08:00+11s23788 0.0 102756
11:00+12ssw22765 0.0 102740
14:00+13wnw22735 0.0 102585
17:00+12nw33761 0.0 102380
20:00+13wnw22745 0.0 102215
23 september, thu
thu2323:00+12sw45805 0.0 102147
02:00+12sw58844 0.0 1020102
05:00+12wsw589210 0.0 1019113
08:00+12nnw4693100 0.0 101996
11:00+11nnw5696100 0.0 1019179
14:00+11nnw4687100 0.0 1020293
17:00+11nw4581100 0.0 1019242
20:00+11wsw3476100 0.0 1017103